Time,TemperatureF,DewpointF,PressureIn,WindDirection,WindDirectionDegrees,WindSpeedMPH,WindSpeedGustMPH,Humidity,HourlyPrecipIn,Conditions,Clouds,dailyrainin,SoftwareType,DateUTC
2013-04-06 00:00:00,39.1,26.8,29.85,NNW,336,2.0,10.0,61,0.00,,CLR,0.00,VWS V13.01,2013-04-06 04:00:00,
2013-04-06 00:01:00,39.2,26.9,29.85,North,360,0.0,10.0,61,0.00,,CLR,0.00,VWS V13.01,2013-04-06 04:01:00,
2013-04-06 00:06:00,39.1,26.8,29.86,NNW,336,0.0,5.0,61,0.00,,CLR,0.00,VWS V13.01,2013-04-06 04:06:00,
2013-04-06 00:12:00,38.9,26.6,29.86,WNW,290,4.0,12.0,61,0.00,,CLR,0.00,VWS V13.01,2013-04-06 04:12:00,
2013-04-06 00:17:00,38.9,26.2,29.86,NW,306,0.0,12.0,60,0.00,,CLR,0.00,VWS V13.01,2013-04-06 04:17:00,
2013-04-06 00:22:00,38.8,25.7,29.86,NNW,338,2.0,12.0,59,0.00,,CLR,0.00,VWS V13.01,2013-04-06 04:22:00,
2013-04-06 00:27:00,38.7,25.6,29.86,WNW,282,0.0,13.0,59,0.00,,CLR,0.00,VWS V13.01,2013-04-06 04:27:00,
2013-04-06 00:32:00,38.6,25.1,29.86,NNW,329,6.0,10.0,58,0.00,,CLR,0.00,VWS V13.01,2013-04-06 04:32:00,
2013-04-06 00:37:00,38.6,25.1,29.86,NW,310,0.0,11.0,58,0.00,,CLR,0.00,VWS V13.01,2013-04-06 04:37:00,
2013-04-06 00:42:00,38.5,25.0,29.86,NNE,21,10.0,13.0,58,0.00,,CLR,0.00,VWS V13.01,2013-04-06 04:42:00,
2013-04-06 00:47:00,38.4,24.9,29.86,NNW,327,3.0,13.0,58,0.00,,CLR,0.00,VWS V13.01,2013-04-06 04:47:00,
2013-04-06 00:52:00,38.3,24.8,29.87,NW,307,0.0,13.0,58,0.00,,CLR,0.00,VWS V13.01,2013-04-06 04:52:00,
2013-04-06 00:57:00,38.1,24.6,29.87,NW,314,0.0,13.0,58,0.00,,CLR,0.00,VWS V13.01,2013-04-06 04:57:00,
2013-04-06 01:03:00,38.0,24.5,29.87,NW,319,0.0,3.0,58,0.00,,CLR,0.00,VWS V13.01,2013-04-06 05:03:00,
2013-04-06 01:08:00,37.8,24.4,29.87,NW,310,0.0,4.0,58,0.00,,CLR,0.00,VWS V13.01,2013-04-06 05:08:00,
2013-04-06 01:13:00,37.5,24.5,29.88,NW,310,3.0,4.0,59,0.00,,CLR,0.00,VWS V13.01,2013-04-06 05:13:00,
2013-04-06 01:18:00,37.3,24.3,29.88,NNW,329,2.0,6.0,59,0.00,,CLR,0.00,VWS V13.01,2013-04-06 05:18:00,
2013-04-06 01:23:00,37.0,24.4,29.88,NNW,337,1.0,7.0,60,0.00,,CLR,0.00,VWS V13.01,2013-04-06 05:23:00,
2013-04-06 01:28:00,36.9,24.3,29.88,NNW,338,0.0,8.0,60,0.00,,CLR,0.00,VWS V13.01,2013-04-06 05:28:00,
2013-04-06 01:33:00,36.8,23.8,29.88,NNW,348,0.0,6.0,59,0.00,,CLR,0.00,VWS V13.01,2013-04-06 05:33:00,
2013-04-06 01:38:00,36.8,24.2,29.88,NNW,327,3.0,11.0,60,0.00,,CLR,0.00,VWS V13.01,2013-04-06 05:38:00,
2013-04-06 01:43:00,36.6,24.0,29.88,NW,325,2.0,11.0,60,0.00,,CLR,0.00,VWS V13.01,2013-04-06 05:43:00,
2013-04-06 01:48:00,36.5,24.0,29.89,NNW,343,1.0,11.0,60,0.00,,CLR,0.00,VWS V13.01,2013-04-06 05:48:00,
2013-04-06 01:53:00,36.4,23.9,29.89,NNE,23,4.0,11.0,60,0.00,,CLR,0.00,VWS V13.01,2013-04-06 05:53:00,
2013-04-06 01:58:00,36.3,24.1,29.89,NW,325,0.0,11.0,61,0.00,,CLR,0.00,VWS V13.01,2013-04-06 05:58:00,
2013-04-06 02:03:00,36.2,24.1,29.89,NW,305,2.0,5.0,61,0.00,,CLR,0.00,VWS V13.01,2013-04-06 06:03:00,
2013-04-06 02:09:00,36.1,23.6,29.89,NW,315,0.0,12.0,60,0.00,,CLR,0.00,VWS V13.01,2013-04-06 06:09:00,
2013-04-06 02:14:00,36.1,22.8,29.89,WNW,301,1.0,12.0,58,0.00,,CLR,0.00,VWS V13.01,2013-04-06 06:14:00,
2013-04-06 02:20:00,36.1,22.8,29.89,NNW,342,3.0,12.0,58,0.00,,CLR,0.00,VWS V13.01,2013-04-06 06:20:00,
2013-04-06 02:25:00,36.0,21.4,29.90,NW,321,2.0,12.0,55,0.00,,CLR,0.00,VWS V13.01,2013-04-06 06:25:00,
2013-04-06 02:30:00,36.1,20.6,29.90,North,5,0.0,15.0,53,0.00,,CLR,0.00,VWS V13.01,2013-04-06 06:30:00,
2013-04-06 02:35:00,36.1,19.7,29.90,NNW,328,1.0,12.0,51,0.00,,CLR,0.00,VWS V13.01,2013-04-06 06:35:00,
2013-04-06 02:40:00,36.1,19.3,29.91,NW,304,1.0,12.0,50,0.00,,CLR,0.00,VWS V13.01,2013-04-06 06:40:00,
2013-04-06 02:45:00,36.1,18.8,29.90,WNW,300,2.0,12.0,49,0.00,,CLR,0.00,VWS V13.01,2013-04-06 06:45:00,
2013-04-06 02:50:00,36.0,17.7,29.90,WNW,286,9.0,16.0,47,0.00,,CLR,0.00,VWS V13.01,2013-04-06 06:50:00,
2013-04-06 02:55:00,36.0,17.7,29.91,West,278,3.0,16.0,47,0.00,,CLR,0.00,VWS V13.01,2013-04-06 06:55:00,
2013-04-06 03:00:00,35.9,17.6,29.90,WNW,302,1.0,16.0,47,0.00,,CLR,0.00,VWS V13.01,2013-04-06 07:00:00,
2013-04-06 03:05:00,35.8,18.0,29.91,NW,309,9.0,13.0,48,0.00,,CLR,0.00,VWS V13.01,2013-04-06 07:05:00,
2013-04-06 03:10:00,35.6,17.9,29.91,WNW,295,2.0,13.0,48,0.00,,CLR,0.00,VWS V13.01,2013-04-06 07:10:00,
2013-04-06 03:15:00,35.4,18.6,29.91,NNW,340,2.0,13.0,50,0.00,,CLR,0.00,VWS V13.01,2013-04-06 07:15:00,
2013-04-06 03:20:00,35.2,18.4,29.92,NW,319,0.0,13.0,50,0.00,,CLR,0.00,VWS V13.01,2013-04-06 07:20:00,
2013-04-06 03:25:00,35.1,18.8,29.92,NNW,336,0.0,13.0,51,0.00,,CLR,0.00,VWS V13.01,2013-04-06 07:25:00,
2013-04-06 03:30:00,34.9,19.1,29.92,NNW,333,1.0,13.0,52,0.00,,CLR,0.00,VWS V13.01,2013-04-06 07:30:00,
2013-04-06 03:36:00,34.8,19.0,29.93,WNW,297,0.0,13.0,52,0.00,,CLR,0.00,VWS V13.01,2013-04-06 07:36:00,
2013-04-06 03:41:00,34.7,19.3,29.93,NW,304,1.0,13.0,53,0.00,,CLR,0.00,VWS V13.01,2013-04-06 07:41:00,
2013-04-06 03:46:00,34.5,18.7,29.94,West,279,0.0,13.0,52,0.00,,CLR,0.00,VWS V13.01,2013-04-06 07:46:00,
2013-04-06 03:52:00,34.5,18.2,29.94,NNW,327,2.0,13.0,51,0.00,,CLR,0.00,VWS V13.01,2013-04-06 07:52:00,
2013-04-06 03:57:00,34.5,18.7,29.94,WNW,294,0.0,13.0,52,0.00,,CLR,0.00,VWS V13.01,2013-04-06 07:57:00,
2013-04-06 04:02:00,34.4,18.2,29.95,WNW,292,4.0,5.0,51,0.00,,CLR,0.00,VWS V13.01,2013-04-06 08:02:00,
2013-04-06 04:07:00,34.3,18.1,29.95,NW,324,1.0,8.0,51,0.00,,CLR,0.00,VWS V13.01,2013-04-06 08:07:00,
2013-04-06 04:12:00,34.3,17.6,29.95,NE,56,6.0,8.0,50,0.00,,CLR,0.00,VWS V13.01,2013-04-06 08:12:00,
2013-04-06 04:17:00,34.3,17.6,29.96,NW,323,0.0,14.0,50,0.00,,CLR,0.00,VWS V13.01,2013-04-06 08:17:00,
2013-04-06 04:22:00,34.2,16.6,29.97,NW,323,0.0,14.0,48,0.00,,CLR,0.00,VWS V13.01,2013-04-06 08:22:00,
2013-04-06 04:28:00,34.1,16.5,29.97,NW,324,1.0,14.0,48,0.00,,CLR,0.00,VWS V13.01,2013-04-06 08:28:00,
2013-04-06 04:33:00,34.0,15.9,29.97,WNW,303,0.0,2.0,47,0.00,,CLR,0.00,VWS V13.01,2013-04-06 08:33:00,
2013-04-06 04:38:00,33.9,15.8,29.98,NW,314,3.0,9.0,47,0.00,,CLR,0.00,VWS V13.01,2013-04-06 08:38:00,
2013-04-06 04:43:00,33.9,15.8,29.98,NW,321,3.0,12.0,47,0.00,,CLR,0.00,VWS V13.01,2013-04-06 08:43:00,
2013-04-06 04:48:00,33.9,15.8,29.98,North,355,0.0,12.0,47,0.00,,CLR,0.00,VWS V13.01,2013-04-06 08:48:00,
2013-04-06 04:53:00,33.7,16.1,29.98,WNW,294,1.0,12.0,48,0.00,,CLR,0.00,VWS V13.01,2013-04-06 08:53:00,
2013-04-06 04:58:00,33.6,17.0,29.99,North,5,0.0,12.0,50,0.00,,CLR,0.00,VWS V13.01,2013-04-06 08:58:00,
2013-04-06 05:03:00,33.4,18.1,29.99,NW,321,0.0,3.0,53,0.00,,CLR,0.00,VWS V13.01,2013-04-06 09:03:00,
2013-04-06 05:08:00,33.2,18.4,30.00,NNW,331,2.0,6.0,54,0.00,,CLR,0.00,VWS V13.01,2013-04-06 09:08:00,
2013-04-06 05:13:00,33.0,18.6,30.00,North,360,4.0,6.0,55,0.00,,CLR,0.00,VWS V13.01,2013-04-06 09:13:00,
2013-04-06 05:18:00,32.9,17.7,30.00,NW,323,4.0,10.0,53,0.00,,CLR,0.00,VWS V13.01,2013-04-06 09:18:00,
2013-04-06 05:23:00,32.8,18.0,30.01,NW,325,0.0,10.0,54,0.00,,CLR,0.00,VWS V13.01,2013-04-06 09:23:00,
2013-04-06 05:29:00,32.7,17.9,30.01,NNW,329,1.0,10.0,54,0.00,,CLR,0.00,VWS V13.01,2013-04-06 09:29:00,
2013-04-06 05:34:00,32.7,17.5,30.01,NNW,340,0.0,5.0,53,0.00,,CLR,0.00,VWS V13.01,2013-04-06 09:34:00,
2013-04-06 05:39:00,32.6,17.8,30.02,NW,304,1.0,5.0,54,0.00,,CLR,0.00,VWS V13.01,2013-04-06 09:39:00,
2013-04-06 05:44:00,32.5,17.7,30.02,NW,325,0.0,5.0,54,0.00,,CLR,0.00,VWS V13.01,2013-04-06 09:44:00,
2013-04-06 05:49:00,32.4,17.2,30.03,North,355,0.0,8.0,53,0.00,,SCT060,0.00,VWS V13.01,2013-04-06 09:49:00,
2013-04-06 05:54:00,32.3,17.1,30.03,NW,319,1.0,8.0,53,0.00,,SCT060,0.00,VWS V13.01,2013-04-06 09:54:00,
2013-04-06 06:00:00,32.2,16.6,30.03,WNW,300,0.0,8.0,52,0.00,,SCT060,0.00,VWS V13.01,2013-04-06 10:00:00,
2013-04-06 06:05:00,32.0,16.4,30.04,NW,314,0.0,10.0,52,0.00,,SCT060,0.00,VWS V13.01,2013-04-06 10:05:00,
2013-04-06 06:10:00,31.9,16.7,30.05,NNW,329,1.0,10.0,53,0.00,,SCT060,0.00,VWS V13.01,2013-04-06 10:10:00,
2013-04-06 06:15:00,31.8,15.8,30.05,NE,41,3.0,10.0,51,0.00,,SCT060,0.00,VWS V13.01,2013-04-06 10:15:00,
2013-04-06 06:20:00,31.7,15.7,30.05,WNW,303,2.0,10.0,51,0.00,,SCT060,0.00,VWS V13.01,2013-04-06 10:20:00,
2013-04-06 06:26:00,31.7,15.7,30.06,WNW,301,3.0,14.0,51,0.00,,SCT060,0.00,VWS V13.01,2013-04-06 10:26:00,
2013-04-06 06:31:00,31.6,15.6,30.06,WNW,297,5.0,14.0,51,0.00,,SCT060,0.00,VWS V13.01,2013-04-06 10:31:00,
2013-04-06 06:36:00,31.6,14.2,30.06,WNW,288,2.0,13.0,48,0.00,,SCT060,0.00,VWS V13.01,2013-04-06 10:36:00,
2013-04-06 06:41:00,31.6,14.6,30.07,NNW,334,0.0,13.0,49,0.00,,SCT060,0.00,VWS V13.01,2013-04-06 10:41:00,
2013-04-06 06:46:00,31.6,14.6,30.07,WSW,242,0.0,13.0,49,0.00,,BKN055,0.00,VWS V13.01,2013-04-06 10:46:00,
2013-04-06 06:51:00,31.5,14.1,30.07,WNW,294,4.0,13.0,48,0.00,,BKN055,0.00,VWS V13.01,2013-04-06 10:51:00,
2013-04-06 06:56:00,31.5,14.1,30.07,South,173,2.0,13.0,48,0.00,,BKN055,0.00,VWS V13.01,2013-04-06 10:56:00,
2013-04-06 07:02:00,31.5,13.6,30.08,NW,321,3.0,6.0,47,0.00,,BKN055,0.00,VWS V13.01,2013-04-06 11:02:00,
2013-04-06 07:07:00,31.6,13.7,30.08,NNW,344,7.0,9.0,47,0.00,,BKN055,0.00,VWS V13.01,2013-04-06 11:07:00,
2013-04-06 07:12:00,31.6,13.7,30.09,NNW,328,0.0,13.0,47,0.00,,BKN055,0.00,VWS V13.01,2013-04-06 11:12:00,
2013-04-06 07:17:00,31.5,13.6,30.09,North,355,0.0,13.0,47,0.00,,BKN055,0.00,VWS V13.01,2013-04-06 11:17:00,
2013-04-06 07:22:00,31.5,13.1,30.09,WNW,292,3.0,13.0,46,0.00,,BKN055,0.00,VWS V13.01,2013-04-06 11:22:00,
2013-04-06 07:27:00,31.5,13.1,30.10,West,281,2.0,13.0,46,0.00,,BKN055,0.00,VWS V13.01,2013-04-06 11:27:00,
2013-04-06 07:32:00,31.4,12.0,30.10,North,355,7.0,7.0,44,0.00,,BKN055,0.00,VWS V13.01,2013-04-06 11:32:00,
2013-04-06 07:33:00,31.4,12.0,30.10,NE,51,3.0,12.0,44,0.00,,BKN055,0.00,VWS V13.01,2013-04-06 11:33:00,
2013-04-06 07:38:00,31.4,11.5,30.11,NW,313,0.0,14.0,43,0.00,,BKN055,0.00,VWS V13.01,2013-04-06 11:38:00,
2013-04-06 07:43:00,31.4,12.0,30.11,NNW,329,7.0,15.0,44,0.00,,BKN055,0.00,VWS V13.01,2013-04-06 11:43:00,
2013-04-06 07:48:00,31.5,12.1,30.11,NW,317,10.0,15.0,44,0.00,,CLR,0.00,VWS V13.01,2013-04-06 11:48:00,
2013-04-06 07:53:00,31.5,12.1,30.11,NW,305,2.0,17.0,44,0.00,,CLR,0.00,VWS V13.01,2013-04-06 11:53:00,
2013-04-06 07:58:00,31.5,11.6,30.11,NW,323,1.0,17.0,43,0.00,,CLR,0.00,VWS V13.01,2013-04-06 11:58:00,
2013-04-06 08:04:00,31.6,12.2,30.11,NE,43,1.0,14.0,44,0.00,,CLR,0.00,VWS V13.01,2013-04-06 12:04:00,
2013-04-06 08:09:00,31.7,10.7,30.12,NNW,329,2.0,14.0,41,0.00,,CLR,0.00,VWS V13.01,2013-04-06 12:09:00,
2013-04-06 08:14:00,31.5,10.5,30.12,North,355,5.0,14.0,41,0.00,,CLR,0.00,VWS V13.01,2013-04-06 12:14:00,
2013-04-06 08:19:00,31.4,10.4,30.13,NNE,24,7.0,14.0,41,0.00,,CLR,0.00,VWS V13.01,2013-04-06 12:19:00,
2013-04-06 08:24:00,31.3,10.3,30.13,WNW,285,6.0,16.0,41,0.00,,CLR,0.00,VWS V13.01,2013-04-06 12:24:00,
2013-04-06 08:30:00,31.3,10.3,30.14,NW,304,2.0,16.0,41,0.00,,CLR,0.00,VWS V13.01,2013-04-06 12:30:00,
2013-04-06 08:35:00,31.2,10.2,30.14,NW,309,8.0,14.0,41,0.00,,CLR,0.00,VWS V13.01,2013-04-06 12:35:00,
2013-04-06 08:40:00,31.4,11.0,30.14,WSW,248,2.0,14.0,42,0.00,,CLR,0.00,VWS V13.01,2013-04-06 12:40:00,
2013-04-06 08:45:00,31.6,11.2,30.14,NE,50,5.0,16.0,42,0.00,,CLR,0.00,VWS V13.01,2013-04-06 12:45:00,
2013-04-06 08:50:00,32.0,10.4,30.14,NW,307,0.0,18.0,40,0.00,,CLR,0.00,VWS V13.01,2013-04-06 12:50:00,
2013-04-06 08:55:00,33.0,11.9,30.14,West,265,2.0,18.0,41,0.00,,CLR,0.00,VWS V13.01,2013-04-06 12:55:00,
2013-04-06 09:00:00,33.9,11.0,30.14,North,355,5.0,18.0,38,0.00,,CLR,0.00,VWS V13.01,2013-04-06 13:00:00,
2013-04-06 09:06:00,34.3,11.4,30.14,NW,321,3.0,15.0,38,0.00,,CLR,0.00,VWS V13.01,2013-04-06 13:06:00,
2013-04-06 09:11:00,34.8,10.6,30.14,WNW,298,2.0,18.0,36,0.00,,CLR,0.00,VWS V13.01,2013-04-06 13:11:00,
2013-04-06 09:16:00,35.0,10.8,30.15,WNW,296,4.0,18.0,36,0.00,,FEW060,0.00,VWS V13.01,2013-04-06 13:16:00,
2013-04-06 09:22:00,35.4,11.7,30.15,NW,321,13.0,18.0,37,0.00,,FEW060,0.00,VWS V13.01,2013-04-06 13:22:00,
2013-04-06 09:27:00,35.5,10.6,30.15,NNW,344,5.0,18.0,35,0.00,,FEW060,0.00,VWS V13.01,2013-04-06 13:27:00,
2013-04-06 09:32:00,35.6,11.3,30.16,NW,321,5.0,7.0,36,0.00,,FEW060,0.00,VWS V13.01,2013-04-06 13:32:00,
2013-04-06 09:37:00,36.1,13.0,30.16,WNW,300,2.0,12.0,38,0.00,,FEW060,0.00,VWS V13.01,2013-04-06 13:37:00,
2013-04-06 09:42:00,36.5,10.1,30.16,WNW,290,3.0,14.0,33,0.00,,FEW060,0.00,VWS V13.01,2013-04-06 13:42:00,
2013-04-06 09:47:00,36.2,9.9,30.16,NNE,19,0.0,14.0,33,0.00,,FEW060,0.00,VWS V13.01,2013-04-06 13:47:00,
2013-04-06 09:53:00,36.3,11.3,30.17,NNE,24,4.0,14.0,35,0.00,,FEW060,0.00,VWS V13.01,2013-04-06 13:53:00,
2013-04-06 09:58:00,36.3,11.3,30.17,NE,36,6.0,16.0,35,0.00,,FEW060,0.00,VWS V13.01,2013-04-06 13:58:00,
2013-04-06 10:03:00,36.1,11.1,30.17,NW,319,0.0,13.0,35,0.00,,FEW060,0.00,VWS V13.01,2013-04-06 14:03:00,
2013-04-06 10:08:00,36.4,10.1,30.17,WNW,300,2.0,13.0,33,0.00,,FEW060,0.00,VWS V13.01,2013-04-06 14:08:00,
2013-04-06 10:13:00,36.6,11.6,30.17,WNW,300,0.0,13.0,35,0.00,,FEW060,0.00,VWS V13.01,2013-04-06 14:13:00,
2013-04-06 10:18:00,37.5,12.4,30.17,NNW,335,2.0,13.0,35,0.00,,FEW060,0.00,VWS V13.01,2013-04-06 14:18:00,
2013-04-06 10:23:00,38.6,12.7,30.17,NNW,347,4.0,13.0,34,0.00,,FEW060,0.00,VWS V13.01,2013-04-06 14:23:00,
2013-04-06 10:28:00,38.9,11.6,30.18,West,274,0.0,13.0,32,0.00,,FEW060,0.00,VWS V13.01,2013-04-06 14:28:00,
2013-04-06 10:33:00,39.5,9.9,30.18,West,278,3.0,12.0,29,0.00,,FEW060,0.00,VWS V13.01,2013-04-06 14:33:00,
2013-04-06 10:39:00,39.7,10.8,30.18,NW,325,10.0,12.0,30,0.00,,FEW060,0.00,VWS V13.01,2013-04-06 14:39:00,
2013-04-06 10:44:00,40.5,12.3,30.18,NNW,343,12.0,12.0,31,0.00,,FEW060,0.00,VWS V13.01,2013-04-06 14:44:00,
2013-04-06 10:50:00,40.8,11.8,30.18,North,350,4.0,15.0,30,0.00,,FEW060,0.00,VWS V13.01,2013-04-06 14:50:00,
2013-04-06 10:55:00,41.4,13.1,30.18,WNW,292,15.0,15.0,31,0.00,,FEW060,0.00,VWS V13.01,2013-04-06 14:55:00,
2013-04-06 11:00:00,41.1,10.5,30.18,NNW,329,4.0,15.0,28,0.00,,FEW060,0.00,VWS V13.01,2013-04-06 15:00:00,
2013-04-06 11:05:00,41.2,11.4,30.19,WSW,250,0.0,14.0,29,0.00,,FEW060,0.00,VWS V13.01,2013-04-06 15:05:00,
2013-04-06 11:10:00,41.6,11.7,30.19,North,349,4.0,14.0,29,0.00,,FEW060,0.00,VWS V13.01,2013-04-06 15:10:00,
2013-04-06 11:15:00,41.6,9.3,30.19,WNW,296,9.0,14.0,26,0.00,,FEW060,0.00,VWS V13.01,2013-04-06 15:15:00,
2013-04-06 11:20:00,41.4,9.1,30.19,West,265,3.0,14.0,26,0.00,,FEW060,0.00,VWS V13.01,2013-04-06 15:20:00,
2013-04-06 11:25:00,41.5,10.8,30.19,West,276,3.0,18.0,28,0.00,,FEW060,0.00,VWS V13.01,2013-04-06 15:25:00,
2013-04-06 11:30:00,41.5,8.3,30.19,NW,317,0.0,18.0,25,0.00,,FEW060,0.00,VWS V13.01,2013-04-06 15:30:00,
2013-04-06 11:35:00,41.4,11.5,30.19,NNW,342,5.0,17.0,29,0.00,,FEW060,0.00,VWS V13.01,2013-04-06 15:35:00,
2013-04-06 11:40:00,41.8,11.1,30.19,NW,309,7.0,17.0,28,0.00,,FEW060,0.00,VWS V13.01,2013-04-06 15:40:00,
2013-04-06 11:45:00,42.4,10.8,30.19,WNW,300,4.0,17.0,27,0.00,,CLR,0.00,VWS V13.01,2013-04-06 15:45:00,
2013-04-06 11:50:00,43.0,11.3,30.19,NNW,342,9.0,17.0,27,0.00,,CLR,0.00,VWS V13.01,2013-04-06 15:50:00,
2013-04-06 11:55:00,43.1,13.0,30.19,West,274,2.0,17.0,29,0.00,,CLR,0.00,VWS V13.01,2013-04-06 15:55:00,
2013-04-06 12:00:00,43.3,12.4,30.19,WNW,288,0.0,17.0,28,0.00,,CLR,0.00,VWS V13.01,2013-04-06 16:00:00,
2013-04-06 12:06:00,43.6,11.8,30.19,NNW,328,3.0,11.0,27,0.00,,CLR,0.00,VWS V13.01,2013-04-06 16:06:00,
2013-04-06 12:11:00,43.6,11.0,30.19,West,280,0.0,11.0,26,0.00,,CLR,0.00,VWS V13.01,2013-04-06 16:11:00,
2013-04-06 12:16:00,43.4,10.8,30.19,NW,314,3.0,14.0,26,0.00,,CLR,0.00,VWS V13.01,2013-04-06 16:16:00,
2013-04-06 12:21:00,42.8,9.4,30.18,WNW,299,2.0,15.0,25,0.00,,CLR,0.00,VWS V13.01,2013-04-06 16:21:00,
2013-04-06 12:26:00,42.9,9.5,30.19,SW,214,7.0,17.0,25,0.00,,CLR,0.00,VWS V13.01,2013-04-06 16:26:00,
2013-04-06 12:31:00,43.2,9.8,30.18,WNW,283,0.0,17.0,25,0.00,,CLR,0.00,VWS V13.01,2013-04-06 16:31:00,
2013-04-06 12:37:00,44.0,11.3,30.19,West,274,5.0,16.0,26,0.00,,CLR,0.00,VWS V13.01,2013-04-06 16:37:00,
2013-04-06 12:42:00,44.2,11.5,30.19,NW,304,5.0,16.0,26,0.00,,CLR,0.00,VWS V13.01,2013-04-06 16:42:00,
2013-04-06 12:47:00,43.9,10.4,30.19,West,273,3.0,16.0,25,0.00,,CLR,0.00,VWS V13.01,2013-04-06 16:47:00,
2013-04-06 12:52:00,44.0,11.3,30.19,NNW,345,4.0,16.0,26,0.00,,CLR,0.00,VWS V13.01,2013-04-06 16:52:00,
2013-04-06 12:57:00,43.4,10.8,30.19,SW,222,2.0,16.0,26,0.00,,CLR,0.00,VWS V13.01,2013-04-06 16:57:00,
2013-04-06 13:02:00,43.4,10.8,30.18,West,278,3.0,13.0,26,0.00,,CLR,0.00,VWS V13.01,2013-04-06 17:02:00,
2013-04-06 13:07:00,43.7,11.1,30.18,West,276,3.0,13.0,26,0.00,,CLR,0.00,VWS V13.01,2013-04-06 17:07:00,
2013-04-06 13:12:00,44.6,10.1,30.18,NNE,17,2.0,13.0,24,0.00,,CLR,0.00,VWS V13.01,2013-04-06 17:12:00,
2013-04-06 13:17:00,45.2,11.5,30.19,West,271,1.0,13.0,25,0.00,,CLR,0.00,VWS V13.01,2013-04-06 17:17:00,
2013-04-06 13:23:00,45.4,9.8,30.19,NW,304,2.0,13.0,23,0.00,,CLR,0.00,VWS V13.01,2013-04-06 17:23:00,
2013-04-06 13:28:00,44.9,9.4,30.19,North,355,3.0,13.0,23,0.00,,CLR,0.00,VWS V13.01,2013-04-06 17:28:00,
2013-04-06 13:33:00,45.4,9.8,30.19,West,266,5.0,7.0,23,0.00,,CLR,0.00,VWS V13.01,2013-04-06 17:33:00,
2013-04-06 13:38:00,46.0,11.2,30.19,NW,325,1.0,11.0,24,0.00,,CLR,0.00,VWS V13.01,2013-04-06 17:38:00,
2013-04-06 13:43:00,46.0,9.3,30.18,NNW,331,2.0,13.0,22,0.00,,CLR,0.00,VWS V13.01,2013-04-06 17:43:00,
2013-04-06 13:48:00,46.0,7.2,30.19,WNW,294,0.0,19.0,20,0.00,,CLR,0.00,VWS V13.01,2013-04-06 17:48:00,
2013-04-06 13:53:00,45.2,6.5,30.19,WNW,294,1.0,21.0,20,0.00,,CLR,0.00,VWS V13.01,2013-04-06 17:53:00,
2013-04-06 13:58:00,45.6,9.0,30.19,NNW,333,0.0,21.0,22,0.00,,CLR,0.00,VWS V13.01,2013-04-06 17:58:00,
2013-04-06 14:03:00,46.2,10.5,30.18,West,273,3.0,10.0,23,0.00,,CLR,0.00,VWS V13.01,2013-04-06 18:03:00,
2013-04-06 14:09:00,46.5,10.7,30.18,NE,47,1.0,16.0,23,0.00,,CLR,0.00,VWS V13.01,2013-04-06 18:09:00,
2013-04-06 14:14:00,47.0,10.1,30.18,West,281,4.0,16.0,22,0.00,,CLR,0.00,VWS V13.01,2013-04-06 18:14:00,
2013-04-06 14:19:00,46.8,8.9,30.18,WNW,297,9.0,16.0,21,0.00,,CLR,0.00,VWS V13.01,2013-04-06 18:19:00,
2013-04-06 14:24:00,46.5,6.5,30.19,NE,36,7.0,16.0,19,0.00,,CLR,0.00,VWS V13.01,2013-04-06 18:24:00,
2013-04-06 14:29:00,46.4,8.6,30.19,NNW,340,7.0,20.0,21,0.00,,CLR,0.00,VWS V13.01,2013-04-06 18:29:00,
2013-04-06 14:34:00,46.6,9.8,30.19,NE,47,7.0,7.0,22,0.00,,CLR,0.00,VWS V13.01,2013-04-06 18:34:00,
2013-04-06 14:39:00,46.9,9.0,30.18,WNW,285,4.0,17.0,21,0.00,,CLR,0.00,VWS V13.01,2013-04-06 18:39:00,
2013-04-06 14:44:00,47.2,8.2,30.18,NNW,338,3.0,17.0,20,0.00,,CLR,0.00,VWS V13.01,2013-04-06 18:44:00,
2013-04-06 14:50:00,47.3,8.3,30.18,NW,318,0.0,17.0,20,0.00,,CLR,0.00,VWS V13.01,2013-04-06 18:50:00,
2013-04-06 14:55:00,47.3,7.1,30.18,WNW,298,1.0,17.0,19,0.00,,CLR,0.00,VWS V13.01,2013-04-06 18:55:00,
2013-04-06 15:00:00,47.8,8.7,30.18,WNW,299,2.0,17.0,20,0.00,,CLR,0.00,VWS V13.01,2013-04-06 19:00:00,
2013-04-06 15:05:00,48.2,9.0,30.18,NNW,338,3.0,10.0,20,0.00,,CLR,0.00,VWS V13.01,2013-04-06 19:05:00,
2013-04-06 15:10:00,48.2,7.9,30.18,NNW,331,4.0,14.0,19,0.00,,CLR,0.00,VWS V13.01,2013-04-06 19:10:00,
2013-04-06 15:15:00,48.1,6.6,30.18,West,269,0.0,14.0,18,0.00,,CLR,0.00,VWS V13.01,2013-04-06 19:15:00,
2013-04-06 15:20:00,48.1,8.9,30.18,NW,309,1.0,14.0,20,0.00,,CLR,0.00,VWS V13.01,2013-04-06 19:20:00,
2013-04-06 15:25:00,48.3,9.1,30.18,NW,319,0.0,14.0,20,0.00,,CLR,0.00,VWS V13.01,2013-04-06 19:25:00,
2013-04-06 15:30:00,48.4,8.1,30.18,NNW,341,3.0,14.0,19,0.00,,CLR,0.00,VWS V13.01,2013-04-06 19:30:00,
2013-04-06 15:35:00,48.8,10.6,30.18,WNW,284,2.0,3.0,21,0.00,,CLR,0.00,VWS V13.01,2013-04-06 19:35:00,
2013-04-06 15:40:00,49.4,11.1,30.18,NNE,15,2.0,4.0,21,0.00,,CLR,0.00,VWS V13.01,2013-04-06 19:40:00,
2013-04-06 15:46:00,49.9,8.1,30.18,NNW,327,5.0,5.0,18,0.00,,CLR,0.00,VWS V13.01,2013-04-06 19:46:00,
2013-04-06 15:51:00,50.3,10.8,30.18,NW,314,0.0,5.0,20,0.00,,CLR,0.00,VWS V13.01,2013-04-06 19:51:00,
2013-04-06 15:56:00,50.6,11.0,30.18,West,281,1.0,6.0,20,0.00,,CLR,0.00,VWS V13.01,2013-04-06 19:56:00,
2013-04-06 16:01:00,50.1,10.6,30.18,NW,317,5.0,11.0,20,0.00,,CLR,0.00,VWS V13.01,2013-04-06 20:01:00,
2013-04-06 16:06:00,49.1,9.8,30.18,WNW,302,0.0,11.0,20,0.00,,CLR,0.00,VWS V13.01,2013-04-06 20:06:00,
2013-04-06 16:11:00,49.1,8.6,30.18,WNW,292,2.0,11.0,19,0.00,,CLR,0.00,VWS V13.01,2013-04-06 20:11:00,
2013-04-06 16:16:00,48.8,8.4,30.18,NNE,27,4.0,11.0,19,0.00,,CLR,0.00,VWS V13.01,2013-04-06 20:16:00,
2013-04-06 16:22:00,48.8,8.4,30.18,NNE,29,0.0,11.0,19,0.00,,CLR,0.00,VWS V13.01,2013-04-06 20:22:00,
2013-04-06 16:27:00,48.9,7.3,30.18,North,5,1.0,11.0,18,0.00,,CLR,0.00,VWS V13.01,2013-04-06 20:27:00,
2013-04-06 16:32:00,48.6,9.4,30.19,NNW,337,1.0,4.0,20,0.00,,CLR,0.00,VWS V13.01,2013-04-06 20:32:00,
2013-04-06 16:37:00,48.4,10.3,30.18,NNW,329,0.0,6.0,21,0.00,,CLR,0.00,VWS V13.01,2013-04-06 20:37:00,
2013-04-06 16:42:00,48.3,9.1,30.19,WNW,283,0.0,9.0,20,0.00,,CLR,0.00,VWS V13.01,2013-04-06 20:42:00,
2013-04-06 16:47:00,48.0,9.9,30.19,WNW,291,1.0,11.0,21,0.00,,CLR,0.00,VWS V13.01,2013-04-06 20:47:00,
2013-04-06 16:52:00,47.8,9.8,30.19,NNW,336,0.0,11.0,21,0.00,,CLR,0.00,VWS V13.01,2013-04-06 20:52:00,
2013-04-06 16:57:00,47.7,9.7,30.19,NW,313,1.0,11.0,21,0.00,,CLR,0.00,VWS V13.01,2013-04-06 20:57:00,
2013-04-06 17:02:00,47.4,7.2,30.19,West,267,0.0,2.0,19,0.00,,CLR,0.00,VWS V13.01,2013-04-06 21:02:00,
2013-04-06 17:07:00,47.1,8.1,30.19,NW,324,0.0,11.0,20,0.00,,CLR,0.00,VWS V13.01,2013-04-06 21:07:00,
2013-04-06 17:13:00,46.7,7.8,30.20,West,281,0.0,11.0,20,0.00,,CLR,0.00,VWS V13.01,2013-04-06 21:13:00,
2013-04-06 17:18:00,46.4,7.5,30.19,SSW,211,2.0,11.0,20,0.00,,CLR,0.00,VWS V13.01,2013-04-06 21:18:00,
2013-04-06 17:23:00,46.1,7.3,30.20,SW,220,0.0,11.0,20,0.00,,CLR,0.00,VWS V13.01,2013-04-06 21:23:00,
2013-04-06 17:28:00,45.9,7.1,30.20,WNW,292,0.0,11.0,20,0.00,,CLR,0.00,VWS V13.01,2013-04-06 21:28:00,
2013-04-06 17:33:00,45.8,8.1,30.20,NW,320,0.0,1.0,21,0.00,,CLR,0.00,VWS V13.01,2013-04-06 21:33:00,
2013-04-06 17:38:00,45.7,10.0,30.21,North,355,1.0,4.0,23,0.00,,CLR,0.00,VWS V13.01,2013-04-06 21:38:00,
2013-04-06 17:43:00,45.6,7.9,30.20,NW,314,0.0,6.0,21,0.00,,CLR,0.00,VWS V13.01,2013-04-06 21:43:00,
2013-04-06 17:48:00,45.4,8.8,30.21,NW,312,0.0,7.0,22,0.00,,CLR,0.00,VWS V13.01,2013-04-06 21:48:00,
2013-04-06 17:53:00,45.3,9.7,30.21,West,275,0.0,7.0,23,0.00,,CLR,0.00,VWS V13.01,2013-04-06 21:53:00,
2013-04-06 17:59:00,45.2,9.6,30.21,NNW,342,0.0,7.0,23,0.00,,CLR,0.00,VWS V13.01,2013-04-06 21:59:00,
2013-04-06 18:04:00,44.9,7.3,30.22,North,5,0.0,4.0,21,0.00,,CLR,0.00,VWS V13.01,2013-04-06 22:04:00,
2013-04-06 18:09:00,44.9,9.4,30.22,West,277,0.0,4.0,23,0.00,,CLR,0.00,VWS V13.01,2013-04-06 22:09:00,
2013-04-06 18:14:00,44.7,9.2,30.22,West,277,0.0,4.0,23,0.00,,CLR,0.00,VWS V13.01,2013-04-06 22:14:00,
2013-04-06 18:19:00,44.7,8.2,30.23,WNW,298,0.0,4.0,22,0.00,,CLR,0.00,VWS V13.01,2013-04-06 22:19:00,
2013-04-06 18:24:00,44.5,9.0,30.23,WNW,301,0.0,4.0,23,0.00,,CLR,0.00,VWS V13.01,2013-04-06 22:24:00,
2013-04-06 18:29:00,44.4,7.9,30.23,NW,305,0.0,4.0,22,0.00,,CLR,0.00,VWS V13.01,2013-04-06 22:29:00,
2013-04-06 18:34:00,44.2,10.6,30.23,NW,305,1.0,2.0,25,0.00,,CLR,0.00,VWS V13.01,2013-04-06 22:34:00,
2013-04-06 18:39:00,44.0,9.5,30.24,NNW,333,0.0,4.0,24,0.00,,CLR,0.00,VWS V13.01,2013-04-06 22:39:00,
2013-04-06 18:44:00,43.8,10.3,30.24,NNW,333,0.0,4.0,25,0.00,,CLR,0.00,VWS V13.01,2013-04-06 22:44:00,
2013-04-06 18:50:00,43.6,11.0,30.24,NW,317,0.0,4.0,26,0.00,,CLR,0.00,VWS V13.01,2013-04-06 22:50:00,
2013-04-06 18:55:00,43.4,9.9,30.24,NW,317,0.0,4.0,25,0.00,,CLR,0.00,VWS V13.01,2013-04-06 22:55:00,
2013-04-06 19:00:00,43.1,9.7,30.24,NW,317,0.0,4.0,25,0.00,,CLR,0.00,VWS V13.01,2013-04-06 23:00:00,
2013-04-06 19:05:00,42.9,9.5,30.24,NW,317,0.0,0.0,25,0.00,,CLR,0.00,VWS V13.01,2013-04-06 23:05:00,
2013-04-06 19:10:00,42.6,10.1,30.24,NW,317,0.0,0.0,26,0.00,,CLR,0.00,VWS V13.01,2013-04-06 23:10:00,
2013-04-06 19:15:00,42.2,8.9,30.25,NW,317,0.0,1.0,25,0.00,,CLR,0.00,VWS V13.01,2013-04-06 23:15:00,
2013-04-06 19:20:00,41.8,8.6,30.25,NW,317,0.0,1.0,25,0.00,,CLR,0.00,VWS V13.01,2013-04-06 23:20:00,
2013-04-06 19:25:00,41.5,9.2,30.25,NW,317,0.0,1.0,26,0.00,,CLR,0.00,VWS V13.01,2013-04-06 23:25:00,
2013-04-06 19:30:00,41.1,9.7,30.26,NW,317,0.0,1.0,27,0.00,,CLR,0.00,VWS V13.01,2013-04-06 23:30:00,
2013-04-06 19:35:00,40.7,9.3,30.26,NW,317,0.0,0.0,27,0.00,,CLR,0.00,VWS V13.01,2013-04-06 23:35:00,
2013-04-06 19:40:00,40.3,9.0,30.26,NW,317,0.0,0.0,27,0.00,,CLR,0.00,VWS V13.01,2013-04-06 23:40:00,
2013-04-06 19:45:00,39.9,10.2,30.26,NW,317,0.0,0.0,29,0.00,,CLR,0.00,VWS V13.01,2013-04-06 23:45:00,
2013-04-06 19:50:00,39.5,9.1,30.27,NW,317,0.0,0.0,28,0.00,,CLR,0.00,VWS V13.01,2013-04-06 23:50:00,
2013-04-06 19:55:00,39.1,8.8,30.27,NW,317,0.0,0.0,28,0.00,,CLR,0.00,VWS V13.01,2013-04-06 23:55:00,
2013-04-06 20:00:00,38.8,10.0,30.27,NW,317,0.0,0.0,30,0.00,,CLR,0.00,VWS V13.01,2013-04-07 00:00:00,
2013-04-06 20:05:00,38.5,10.5,30.27,NW,317,0.0,0.0,31,0.00,,CLR,0.00,VWS V13.01,2013-04-07 00:05:00,
2013-04-06 20:10:00,38.0,12.8,30.28,NW,317,0.0,0.0,35,0.00,,CLR,0.00,VWS V13.01,2013-04-07 00:10:00,
2013-04-06 20:15:00,37.6,11.1,30.28,NW,317,0.0,0.0,33,0.00,,CLR,0.00,VWS V13.01,2013-04-07 00:15:00,
2013-04-06 20:21:00,37.3,12.2,30.28,NW,317,0.0,0.0,35,0.00,,CLR,0.00,VWS V13.01,2013-04-07 00:21:00,
2013-04-06 20:26:00,37.0,13.8,30.28,NW,317,0.0,0.0,38,0.00,,CLR,0.00,VWS V13.01,2013-04-07 00:26:00,
2013-04-06 20:31:00,36.3,11.3,30.28,NW,317,0.0,0.0,35,0.00,,CLR,0.00,VWS V13.01,2013-04-07 00:31:00,
2013-04-06 20:36:00,35.8,10.2,30.28,NW,317,0.0,0.0,34,0.00,,CLR,0.00,VWS V13.01,2013-04-07 00:36:00,
2013-04-06 20:41:00,35.4,9.8,30.28,NW,317,0.0,0.0,34,0.00,,CLR,0.00,VWS V13.01,2013-04-07 00:41:00,
2013-04-06 20:46:00,35.1,11.5,30.28,NW,317,0.0,0.0,37,0.00,,CLR,0.00,VWS V13.01,2013-04-07 00:46:00,
2013-04-06 20:52:00,34.8,11.2,30.28,NW,317,0.0,0.0,37,0.00,,CLR,0.00,VWS V13.01,2013-04-07 00:52:00,
2013-04-06 20:57:00,34.5,10.9,30.28,NW,317,0.0,0.0,37,0.00,,CLR,0.00,VWS V13.01,2013-04-07 00:57:00,
2013-04-06 21:02:00,34.2,13.5,30.28,NW,317,0.0,0.0,42,0.00,,CLR,0.00,VWS V13.01,2013-04-07 01:02:00,
2013-04-06 21:07:00,33.7,11.4,30.28,NW,317,0.0,0.0,39,0.00,,CLR,0.00,VWS V13.01,2013-04-07 01:07:00,
2013-04-06 21:12:00,33.4,10.5,30.28,NW,317,0.0,0.0,38,0.00,,CLR,0.00,VWS V13.01,2013-04-07 01:12:00,
2013-04-06 21:17:00,32.9,11.8,30.28,NW,317,0.0,0.0,41,0.00,,CLR,0.00,VWS V13.01,2013-04-07 01:17:00,
2013-04-06 21:22:00,32.4,11.3,30.28,NW,317,0.0,0.0,41,0.00,,CLR,0.00,VWS V13.01,2013-04-07 01:22:00,
2013-04-06 21:27:00,32.1,12.7,30.28,NW,317,0.0,0.0,44,0.00,,CLR,0.00,VWS V13.01,2013-04-07 01:27:00,
2013-04-06 21:32:00,32.0,13.1,30.28,NW,317,0.0,0.0,45,0.00,,CLR,0.00,VWS V13.01,2013-04-07 01:32:00,
2013-04-06 21:37:00,31.9,13.5,30.29,NW,317,0.0,0.0,46,0.00,,CLR,0.00,VWS V13.01,2013-04-07 01:37:00,
2013-04-06 21:42:00,31.8,12.4,30.28,NW,317,0.0,0.0,44,0.00,,CLR,0.00,VWS V13.01,2013-04-07 01:42:00,
2013-04-06 21:47:00,31.7,13.8,30.29,NW,317,0.0,0.0,47,0.00,,CLR,0.00,VWS V13.01,2013-04-07 01:47:00,
2013-04-06 21:52:00,31.6,13.2,30.29,NW,317,0.0,0.0,46,0.00,,CLR,0.00,VWS V13.01,2013-04-07 01:52:00,
2013-04-06 21:58:00,31.4,13.5,30.29,NW,317,0.0,1.0,47,0.00,,CLR,0.00,VWS V13.01,2013-04-07 01:58:00,
2013-04-06 22:03:00,31.2,14.3,30.29,NW,317,0.0,0.0,49,0.00,,CLR,0.00,VWS V13.01,2013-04-07 02:03:00,
2013-04-06 22:08:00,31.1,14.2,30.29,NW,317,0.0,0.0,49,0.00,,CLR,0.00,VWS V13.01,2013-04-07 02:08:00,
2013-04-06 22:13:00,30.9,14.0,30.30,NW,317,0.0,0.0,49,0.00,,CLR,0.00,VWS V13.01,2013-04-07 02:13:00,
2013-04-06 22:18:00,30.7,13.4,30.29,NW,317,0.0,0.0,48,0.00,,CLR,0.00,VWS V13.01,2013-04-07 02:18:00,
2013-04-06 22:23:00,30.5,12.7,30.29,NW,317,0.0,0.0,47,0.00,,CLR,0.00,VWS V13.01,2013-04-07 02:23:00,
2013-04-06 22:30:00,30.4,14.0,30.29,NW,317,0.0,0.0,50,0.00,,CLR,0.00,VWS V13.01,2013-04-07 02:30:00,
2013-04-06 22:35:00,30.3,15.2,30.29,NW,317,0.0,0.0,53,0.00,,CLR,0.00,VWS V13.01,2013-04-07 02:35:00,
2013-04-06 22:40:00,30.1,15.5,30.30,NW,317,0.0,0.0,54,0.00,,CLR,0.00,VWS V13.01,2013-04-07 02:40:00,
2013-04-06 22:45:00,29.9,16.1,30.30,NW,317,0.0,0.0,56,0.00,,CLR,0.00,VWS V13.01,2013-04-07 02:45:00,
2013-04-06 22:50:00,29.7,15.1,30.30,NW,317,0.0,0.0,54,0.00,,CLR,0.00,VWS V13.01,2013-04-07 02:50:00,
2013-04-06 22:55:00,29.6,14.6,30.30,NW,317,0.0,0.0,53,0.00,,CLR,0.00,VWS V13.01,2013-04-07 02:55:00,
2013-04-06 23:00:00,29.4,15.2,30.30,NW,317,0.0,0.0,55,0.00,,CLR,0.00,VWS V13.01,2013-04-07 03:00:00,
2013-04-06 23:05:00,29.3,16.4,30.29,NW,317,0.0,0.0,58,0.00,,CLR,0.00,VWS V13.01,2013-04-07 03:05:00,
2013-04-06 23:10:00,29.1,17.7,30.30,NW,317,0.0,0.0,62,0.00,,CLR,0.00,VWS V13.01,2013-04-07 03:10:00,
2013-04-06 23:15:00,29.0,17.2,30.30,NW,317,0.0,0.0,61,0.00,,CLR,0.00,VWS V13.01,2013-04-07 03:15:00,
2013-04-06 23:21:00,28.9,16.0,30.30,NW,317,0.0,0.0,58,0.00,,CLR,0.00,VWS V13.01,2013-04-07 03:21:00,
2013-04-06 23:26:00,28.7,16.2,30.30,NW,317,0.0,0.0,59,0.00,,CLR,0.00,VWS V13.01,2013-04-07 03:26:00,
2013-04-06 23:31:00,28.6,17.6,30.30,NW,317,0.0,0.0,63,0.00,,CLR,0.00,VWS V13.01,2013-04-07 03:31:00,
2013-04-06 23:36:00,28.5,16.4,30.30,NW,317,0.0,0.0,60,0.00,,CLR,0.00,VWS V13.01,2013-04-07 03:36:00,
2013-04-06 23:41:00,28.3,16.2,30.30,NW,317,0.0,0.0,60,0.00,,CLR,0.00,VWS V13.01,2013-04-07 03:41:00,
2013-04-06 23:46:00,28.2,17.2,30.30,NW,317,0.0,0.0,63,0.00,,CLR,0.00,VWS V13.01,2013-04-07 03:46:00,
2013-04-06 23:52:00,28.0,16.7,30.30,NW,317,0.0,0.0,62,0.00,,CLR,0.00,VWS V13.01,2013-04-07 03:52:00,
2013-04-06 23:57:00,27.9,17.0,30.30,NW,317,0.0,0.0,63,0.00,,CLR,0.00,VWS V13.01,2013-04-07 03:57:00,